This demonstration page uses our WeatherBlox Daily Observations layout. Learn more.

Left ArrowRight Arrow

41.12389, -100.76542

Hourly Observations for July 25, 2016

Temp ( °F °C ) Dew Point ( °F °C ) Humidity (%) Winds ( mph kmh ) Pressure ( in mb ) Visibility ( mi km ) Precip ( " mm )
12:53 am 00:53 Clear 67 19.4 62 16.7 84 84 ENE 5 7 30.08 1019 10 16 0.00 0.00
1:53 am 01:53 Clear 64 17.8 61 16.1 90 90 ESE 6 9 30.06 1018 10 16 0.00 0.00
2:53 am 02:53 Clear 63 17.2 60 15.6 90 90 Calm 30.05 1018 10 16 0.00 0.00
3:53 am 03:53 Clear 62 16.7 59 15 90 90 NE 7 11 30.07 1018 10 16 0.00 0.00
4:53 am 04:53 Clear 60 15.6 59 15 96 96 E 3 6 30.08 1019 10 16 0.00 0.00
5:53 am 05:53 Clear 60 15.6 58 14.4 93 93 E 3 6 30.09 1019 10 16 0.00 0.00
6:53 am 06:53 Sunny 60 15.6 58 14.4 93 93 E 3 6 30.11 1020 7 11 0.00 0.00
7:53 am 07:53 Sunny 63 17.2 61 16.1 93 93 E 6 9 30.11 1020 8 13 0.00 0.00
8:53 am 08:53 Sunny 68 20 64 17.8 87 87 ESE 8 13 30.12 1020 10 16 0.00 0.00
9:53 am 09:53 Sunny 73 22.8 64 17.8 74 74 ESE 9 15 30.12 1020 10 16 0.00 0.00
10:53 am 10:53 Sunny 76 24.4 65 18.3 69 69 ESE 9 15 30.11 1020 10 16 0.00 0.00
11:53 am 11:53 Sunny 79 26.1 65 18.3 62 62 ESE 12 19 30.09 1019 10 16 0.00 0.00
12:53 pm 12:53 Sunny 82 27.8 66 18.9 58 58 SE 12 19 30.07 1018 10 16 0.00 0.00
1:53 pm 13:53 Mostly Sunny 83 28.3 67 19.4 59 59 ESE 8 13 30.06 1018 10 16 0.00 0.00
2:53 pm 14:53 Mostly Sunny 83 28.3 67 19.4 59 59 SE 10 17 30.04 1017 10 16 0.00 0.00
3:53 pm 15:53 Mostly Sunny 85 29.4 66 18.9 53 53 SSE 8 13 30.02 1017 10 16 0.00 0.00
4:53 pm 16:53 Sunny 86 30 66 18.9 51 51 S 12 19 30.00 1016 10 16 0.00 0.00
5:53 pm 17:53 Sunny 85 29.4 66 18.9 53 53 SSE 9 15 29.99 1016 10 16 0.00 0.00
6:53 pm 18:53 Sunny 84 28.9 67 19.4 57 57 SE 8 13 29.99 1016 10 16 0.00 0.00
7:53 pm 19:53 Sunny 82 27.8 68 20 63 63 ESE 8 13 29.98 1015 10 16 0.00 0.00
8:53 pm 20:53 Sunny 75 23.9 68 20 79 79 ESE 6 9 30.01 1016 10 16 0.00 0.00
9:53 pm 21:53 Clear 71 21.7 67 19.4 87 87 ESE 8 13 30.02 1017 10 16 0.00 0.00
10:53 pm 22:53 Clear 70 21.1 67 19.4 90 90 ESE 7 11 30.04 1017 10 16 0.00 0.00
11:53 pm 23:53 Clear 72 22.2 65 18.3 79 79 SE 8 13 30.04 1017 10 16 0.00 0.00

Powered by AerisWeather